| time (UTC) | temp F | wind direction | speed MPH | gust MPH | rain 1hr in | rain 24hr in | rain mn in | humidity % | barometer mb |
| 20260906124545 | 70 | 27 | 4.0 | 8.0 | 0.00 | 0.00 | 0.00 | 39 | 1015.9 |
| 20260906123043 | 70 | 22 | 3.0 | 6.0 | 0.00 | 0.00 | 0.00 | 39 | 1015.7 |
| 20260906121540 | 70 | 37 | 3.0 | 5.0 | 0.00 | 0.00 | 0.00 | 39 | 1015.3 |
| 20260906120040 | 70 | 38 | 1.0 | 4.0 | 0.00 | 0.00 | 0.00 | 39 | 1015.0 |
| 20260906114536 | 70 | 38 | 2.0 | 5.0 | 0.00 | 0.00 | 0.00 | 39 | 1015.1 |
| 20260906113037 | 70 | 38 | 2.0 | 3.0 | 0.00 | 0.00 | 0.00 | 39 | 1014.7 |
| 20260906111532 | 70 | 38 | 2.0 | 3.0 | 0.00 | 0.00 | 0.00 | 39 | 1014.5 |
| 20260906110031 | 70 | 39 | 3.0 | 6.0 | 0.00 | 0.00 | 0.00 | 39 | 1014.3 |
| 20260906104535 | 70 | 46 | 3.0 | 7.0 | 0.00 | 0.00 | 0.00 | 39 | 1014.2 |
| 20260906103030 | 70 | 74 | 3.0 | 7.0 | 0.00 | 0.00 | 0.00 | 39 | 1014.2 |
| 20260906101532 | 70 | 54 | 4.0 | 6.0 | 0.00 | 0.00 | 0.00 | 39 | 1014.1 |
| 20260906100028 | 70 | 57 | 4.0 | 9.0 | 0.00 | 0.00 | 0.00 | 39 | 1013.9 |
| 20260906094537 | 70 | 31 | 6.0 | 10.0 | 0.00 | 0.00 | 0.00 | 39 | 1014.1 |
| 20260906093036 | 70 | 62 | 6.0 | 11.0 | 0.00 | 0.00 | 0.00 | 39 | 1013.6 |
| 20260906091527 | 70 | 82 | 5.0 | 11.0 | 0.00 | 0.00 | 0.00 | 39 | 1013.6 |
| 20260906090024 | 69 | 40 | 7.0 | 12.0 | 0.00 | 0.00 | 0.00 | 39 | 1013.9 |
| 20260906084536 | 69 | 32 | 6.0 | 12.0 | 0.00 | 0.00 | 0.00 | 39 | 1014.0 |
| 20260906083022 | 69 | 49 | 4.0 | 7.0 | 0.00 | 0.00 | 0.00 | 39 | 1013.9 |
| 20260906081519 | 69 | 50 | 5.0 | 10.0 | 0.00 | 0.00 | 0.00 | 39 | 1013.9 |
| 20260906080027 | 70 | 53 | 4.0 | 9.0 | 0.00 | 0.00 | 0.00 | 39 | 1013.8 |
| 20260906074516 | 70 | 63 | 4.0 | 9.0 | 0.00 | 0.00 | 0.00 | 39 | 1013.8 |
| 20260906073014 | 70 | 53 | 5.0 | 10.0 | 0.00 | 0.00 | 0.00 | 39 | 1014.1 |
| 20260906071512 | 71 | 59 | 5.0 | 12.0 | 0.00 | 0.00 | 0.00 | 39 | 1014.1 |
| 20260906070008 | 71 | 63 | 4.0 | 9.0 | 0.00 | 0.00 | 0.00 | 39 | 1014.1 |
| 20260906064511 | 72 | 55 | 4.0 | 9.0 | 0.00 | 0.00 | 0.00 | 39 | 1014.3 |
| 20260906063006 | 72 | 51 | 4.0 | 6.0 | 0.00 | 0.00 | 0.00 | 39 | 1014.3 |
| 20260906061503 | 72 | 61 | 2.0 | 3.0 | 0.00 | 0.00 | 0.00 | 39 | 1014.1 |
| 20260906060002 | 72 | 61 | 2.0 | 3.0 | 0.00 | 0.00 | 0.00 | 39 | 1014.1 |
| 20260906054559 | 72 | 61 | 2.0 | 4.0 | 0.00 | 0.00 | 0.00 | 39 | 1013.9 |
| 20260906053057 | 73 | 61 | 3.0 | 5.0 | 0.00 | 0.00 | 0.00 | 39 | 1013.7 |
| 20260906051603 | 74 | 61 | 2.0 | 6.0 | 0.00 | 0.00 | 0.00 | 39 | 1013.6 |
| 20260906050050 | 74 | 53 | 5.0 | 10.0 | 0.00 | 0.00 | 0.00 | 39 | 1013.3 |
| 20260906044549 | 75 | 61 | 8.0 | 16.0 | 0.00 | 0.00 | 0.00 | 39 | 1013.1 |
| 20260906043049 | 76 | 67 | 3.0 | 8.0 | 0.00 | 0.00 | 0.00 | 39 | 1013.2 |
| 20260906041552 | 76 | 54 | 6.0 | 11.0 | 0.00 | 0.00 | 0.00 | 39 | 1012.9 |
| 20260906040045 | 77 | 76 | 9.0 | 17.0 | 0.00 | 0.00 | 0.00 | 39 | 1012.8 |
| 20260906034547 | 77 | 54 | 4.0 | 7.0 | 0.00 | 0.00 | 0.00 | 39 | 1012.8 |
| 20260906033044 | 78 | 40 | 5.0 | 14.0 | 0.00 | 0.00 | 0.00 | 39 | 1012.8 |
| 20260906031541 | 78 | 46 | 7.0 | 12.0 | 0.00 | 0.00 | 0.00 | 39 | 1012.7 |
| 20260906030041 | 79 | 62 | 7.0 | 13.0 | 0.00 | 0.00 | 0.00 | 39 | 1012.6 |
| 20260906024541 | 80 | 41 | 10.0 | 15.0 | 0.00 | 0.00 | 0.00 | 39 | 1012.4 |
| 20260906023036 | 80 | 34 | 8.0 | 15.0 | 0.00 | 0.00 | 0.00 | 39 | 1012.2 |
| 20260906021537 | 81 | 28 | 7.0 | 13.0 | 0.00 | 0.00 | 0.00 | 39 | 1012.1 |
| 20260906020044 | 81 | 32 | 7.0 | 14.0 | 0.00 | 0.00 | 0.00 | 39 | 1011.7 |
| 20260906014549 | 81 | 40 | 4.0 | 6.0 | 0.00 | 0.00 | 0.00 | 39 | 1011.5 |
| 20260906013035 | 81 | 28 | 4.0 | 6.0 | 0.00 | 0.00 | 0.00 | 39 | 1011.2 |
| 20260906011540 | 80 | 18 | 4.0 | 5.0 | 0.00 | 0.00 | 0.00 | 39 | 1011.2 |
| 20260906010034 | 81 | 14 | 3.0 | 5.0 | 0.00 | 0.00 | 0.00 | 39 | 1010.9 |
| 20260906004538 | 82 | 14 | 5.0 | 7.0 | 0.00 | 0.00 | 0.00 | 39 | 1010.8 |
| 20260906003046 | 84 | 23 | 4.0 | 6.0 | 0.00 | 0.00 | 0.00 | 39 | 1010.7 |
| 20260906001533 | 85 | 28 | 4.0 | 8.0 | 0.00 | 0.00 | 0.00 | 39 | 1010.5 |
| 20260906000033 | 86 | 17 | 4.0 | 8.0 | 0.00 | 0.00 | 0.00 | 39 | 1010.8 |
| 20260905234532 | 88 | 17 | 5.0 | 9.0 | 0.00 | 0.00 | 0.00 | 39 | 1010.8 |
| 20260905233032 | 89 | 26 | 5.0 | 10.0 | 0.00 | 0.00 | 0.00 | 39 | 1010.8 |
| 20260905231536 | 90 | 24 | 6.0 | 9.0 | 0.00 | 0.00 | 0.00 | 39 | 1010.8 |
| 20260905230031 | 90 | 20 | 6.0 | 9.0 | 0.00 | 0.00 | 0.00 | 39 | 1010.8 |
| 20260905224533 | 90 | 10 | 4.0 | 11.0 | 0.00 | 0.00 | 0.00 | 39 | 1010.6 |
| 20260905223029 | 91 | 26 | 6.0 | 11.0 | 0.00 | 0.00 | 0.00 | 39 | 1010.4 |
| 20260905221529 | 91 | 329 | 6.0 | 13.0 | 0.00 | 0.00 | 0.00 | 39 | 1010.6 |
| 20260905220028 | 90 | 9 | 6.0 | 9.0 | 0.00 | 0.00 | 0.00 | 39 | 1010.5 |
| 20260905214527 | 90 | 13 | 6.0 | 10.0 | 0.00 | 0.00 | 0.00 | 39 | 1010.6 |
| 20260905213038 | 91 | 350 | 8.0 | 13.0 | 0.00 | 0.00 | 0.00 | 39 | 1010.6 |
| 20260905211531 | 92 | 12 | 8.0 | 12.0 | 0.00 | 0.00 | 0.00 | 39 | 1010.5 |
| 20260905210026 | 92 | 9 | 8.0 | 14.0 | 0.00 | 0.00 | 0.00 | 39 | 1010.6 |
| 20260905204524 | 93 | 336 | 7.0 | 11.0 | 0.00 | 0.00 | 0.00 | 39 | 1010.7 |
| 20260905203024 | 93 | 5 | 11.0 | 14.0 | 0.00 | 0.00 | 0.00 | 39 | 1010.9 |
| 20260905201522 | 93 | 351 | 11.0 | 15.0 | 0.00 | 0.00 | 0.00 | 39 | 1011.1 |
| 20260905200020 | 93 | 319 | 7.0 | 13.0 | 0.00 | 0.00 | 0.00 | 39 | 1011.0 |
| 20260905194520 | 93 | 355 | 7.0 | 13.0 | 0.00 | 0.00 | 0.00 | 39 | 1011.1 |
| 20260905193019 | 92 | 343 | 6.0 | 13.0 | 0.00 | 0.00 | 0.00 | 39 | 1011.1 |
| 20260905191519 | 93 | 319 | 4.0 | 12.0 | 0.00 | 0.00 | 0.00 | 39 | 1011.2 |
| 20260905190016 | 94 | 336 | 5.0 | 11.0 | 0.00 | 0.00 | 0.00 | 39 | 1011.3 |
| 20260905184512 | 93 | 330 | 6.0 | 12.0 | 0.00 | 0.00 | 0.00 | 39 | 1011.5 |
| 20260905183008 | 93 | 344 | 4.0 | 11.0 | 0.00 | 0.00 | 0.00 | 39 | 1011.7 |
| 20260905181505 | 93 | 323 | 7.0 | 11.0 | 0.00 | 0.00 | 0.00 | 39 | 1011.8 |
| 20260905174556 | 91 | 339 | 7.0 | 12.0 | 0.00 | 0.00 | 0.00 | 39 | 1012.1 |
| 20260905173052 | 91 | 331 | 5.0 | 9.0 | 0.00 | 0.00 | 0.00 | 39 | 1012.1 |
| 20260905171549 | 90 | 339 | 4.0 | 10.0 | 0.00 | 0.00 | 0.00 | 39 | 1012.2 |
| 20260905170053 | 90 | 350 | 5.0 | 10.0 | 0.00 | 0.00 | 0.00 | 39 | 1012.3 |
| 20260905164546 | 90 | 330 | 4.0 | 9.0 | 0.00 | 0.00 | 0.00 | 39 | 1012.4 |
| 20260905163042 | 89 | 335 | 6.0 | 9.0 | 0.00 | 0.00 | 0.00 | 39 | 1012.5 |
| 20260905161541 | 89 | 329 | 3.0 | 6.0 | 0.00 | 0.00 | 0.00 | 39 | 1012.5 |
| 20260905160046 | 88 | 323 | 3.0 | 4.0 | 0.00 | 0.00 | 0.00 | 39 | 1012.5 |
| 20260905154542 | 89 | 321 | 3.0 | 8.0 | 0.00 | 0.00 | 0.00 | 39 | 1012.5 |
| 20260905153039 | 89 | 291 | 4.0 | 7.0 | 0.00 | 0.00 | 0.00 | 39 | 1012.4 |
| 20260905151536 | 88 | 267 | 3.0 | 7.0 | 0.00 | 0.00 | 0.00 | 39 | 1012.4 |
| 20260905150035 | 87 | 264 | 4.0 | 7.0 | 0.00 | 0.00 | 0.00 | 39 | 1012.2 |
| 20260905144535 | 86 | 251 | 4.0 | 5.0 | 0.00 | 0.00 | 0.00 | 39 | 1012.0 |
| 20260905143026 | 84 | 228 | 3.0 | 5.0 | 0.00 | 0.00 | 0.00 | 39 | 1012.0 |
| 20260905141521 | 82 | 219 | 2.0 | 4.0 | 0.00 | 0.00 | 0.00 | 39 | 1012.1 |
| 20260905140020 | 83 | 219 | 2.0 | 5.0 | 0.00 | 0.00 | 0.00 | 39 | 1012.3 |
| 20260905134520 | 82 | 216 | 3.0 | 5.0 | 0.00 | 0.00 | 0.00 | 39 | 1012.2 |
| 20260905133014 | 80 | 215 | 0.0 | 2.0 | 0.00 | 0.00 | 0.00 | 39 | 1012.3 |
| 20260905131516 | 79 | 215 | 0.0 | 2.0 | 0.00 | 0.00 | 0.00 | 39 | 1012.2 |
| 20260905130005 | 77 | 215 | 1.0 | 3.0 | 0.00 | 0.00 | 0.00 | 39 | 1012.2 |